Showing default

DX 1, 40071

Orbit data source: Space-Track

DX 1, 40071 is a payload satellite owned by Dauria (CIS) in SSO that was launched on Tue, 08 Jul 2014 UTC via a SOYUZ-2-1B launch vehicle from the Tyuratam Missile And Space Complex (TTMTR). Payloads include a variety of satellites, spacecraft, and rockets equipped with specific instruments for various scientific and technological missions. These include communications satellites like Starlink; space stations such as the ISS; scientific satellites like the Hubble; Earth observation satellites from companies like Planet Labs, Umbra, and HawkEye 360; GPS; miniature CubeSats for education and research; and military/defense satellites.

Loading next visibility...
DX 1 details
Identifier
40071, 2014-037C
Orbit
SSO
Last TLE update9 hours ago
Origin
Flag of CISDauria (CIS)
ManufacturerDauria
MissionOperational Commercial Technology
Bus & MotorDX-1, Unknown motor
Mass21 kg wet, 21 kg dry
Launch date (UTC)
2014-07-08 (10 years ago)
Launch vehicle
SOYUZ-2-1B
Launch site
Tyuratam Missile And Space Complex (TTMTR)
Object type
Payload
Rocket body
Debris
Shape & HBRBox, 0.2 m
Radar Cross Section0.060 m², Medium (>0.1 m² and < 1m²)

Expand to show TLE details & history

TLE from 9 hours ago
0 DX 1
1 40071U 14037C   24361.08970507  .00004672  00000-0  53016-3 0  9996
2 40071  98.3357 282.5152 0006499 213.5097 146.5707 14.86837688566139
Epoch: 2024-12-26T02:09Z
Definitive object data (Epoch: 2024-12-26T02:09:10.518Z)
Latitude0.00001°
Longitude155.14727°
Altitude614.632 km
Speed7.55 km/s
True Right ascension18h 50m 03s
True Declination0° 00' 00"
Sunlit
Object was in daylight at TLE epoch
Visualization TLE readout
Latitude20.85228°
Longitude-21.28672°
Altitude607.769 km
Speed7.559 km/s
Apparent Right ascension03h 51m 37s
Apparent Declination-18° 01' 23"
Sunlit
Object is in full shadow
Visualization observer readout
Local Sidereal Time10:17:45
Azimuth259.925° W
Elevation-16.353°
Doppler factor1
Orbital elements
Apogee altitude609.414 km
Perigee altitude600.337 km
Semi-major axis6,983.012 km
Eccentricity0.0006499
Inclination98.3357°
RAAN282.5152°
Arg. of periapsis213.5097°
True anomaly146.6117°
Mean anomaly146.5707°
Eccentric anomaly146.5912°
Mean motion3.71945 °/min
BSTAR0.00053016
Orbital period96.79 mins
Loading maneuver chart data...
Loading historical data...
Loading historical data...
Loading historical data...
Loading historical data...
Loading historical data...
Loading historical data...
Loading historical data...

DX 1 Visibility forecast

Observer location: undefined°, undefined

Span
Click to sort rows by Start time (UTC) header in descending order
Start Az.
Max El. time (UTC)
Max El. Az.
Max El.
End time (UTC)
End Az.
7 mins2024-12-26 18:26:29.540Z133.334° SE2024-12-26 18:29:29.540Z74.761° E31.382°2024-12-26 18:33:29.540Z3.773° NNE
6 mins2024-12-27 07:48:29.540Z20.009° NNE2024-12-27 07:51:29.540Z142.54° SSE43.15°2024-12-27 07:54:29.540Z186.698° SSW
|